Location: Bishausen
(51.6334°N, 9.9631°E)
Time: 17:23:55
(UTC+00:00)

Nimbus 7 Rocket - Pass Details

Date: 23 May 2024
Orbit: 922 x 963 km, 99.4° (Epoch: 24 June)

Event Time Altitude Azimuth Distance (km) Brightness Sun altitude
Rises 00:24:22 0° 15° (NNE) 3,620 9.4 -16.2°
Reaches altitude 10° 00:26:48 10° 15° (NNE) 2,677 8.2 -16.1°
Maximum altitude 00:32:49 85° 289° (WNW) 964 4.4 -15.8°
Enters shadow 00:36:44 23° 202° (SSW) 1,898 5.4 -15.6°
